Погода в Косых

Украина / Запорожская область     46°27′37″N   35°16′41″E
темп.,
°C
ветер,
м/с
пор.,
м/с
влажн.,
%
обл.,
%
осадки,
мм/ч
давл.,
гПа
погр.,
м
30 июня, чт
чт3000:00+22ссз44750 0.8 101445
03:00+22св33725 0.9 101435
06:00+23юв47820 0.0 1014190
09:00+25юв55615 0.0 1014361
12:00+26юв545113 0.0 1014559
15:00+25ссз3456100 0.9 1015638
18:00+23ююз016584 4.4 1014215
21:00+22св227355 4.4 101416
1 июля, пт
пт100:00+20ссв34755 0.0 101470
03:00+19св45630 0.0 1015106
06:00+19ссв45670 0.0 1014117
09:00+24ссв45500 0.0 1015439
12:00+26в24410 0.0 10151321
15:00+28зсз153811 0.0 10131811
18:00+28ссв25390 0.0 10131709
21:00+24ссв511460 0.0 1015175
2 июля, сб
сб200:00+21св512510 0.0 1017408
03:00+19св59560 0.0 1018295
06:00+17св69580 0.0 1019355
09:00+20всв67380 0.0 10201036
12:00+24св56320 0.0 10201708
15:00+26ссв35310 0.0 10191490
18:00+26с56344 0.0 10181538
21:00+22ссв511440 0.0 1019242
3 июля, вс
вс300:00+20св46470 0.0 1020108
03:00+18ссв34530 0.0 102072
06:00+17ссв34570 0.0 102098
09:00+22с33445 0.0 1020598
12:00+26ссв23375 0.0 10191349
15:00+27ю35380 0.0 10181569
18:00+27з35392 0.0 10171529
21:00+23з47503 0.0 101795
4 июля, пн
пн400:00+22ссз34490 0.0 101854
03:00+21с3451100 0.0 101755
06:00+20ссз34585 0.0 101784
09:00+26с334632 0.0 1017361
12:00+29ююз133675 0.0 10161750
15:00+28ююз443998 0.0 10151104
18:00+28ююз5641100 0.0 1015635
21:00+24ююв23565 0.0 101525